DWS9845 Weather Reports


time (UTC)temp
C
wind
direction
speed
KPH
gust
KPH
rain 1hr
cm
rain 24hr
cm
rain mn
cm
humidity
%
barometer
mb
20260505183848 27 199 3.2 11.3 0.00 0.00 0.00 83 1007.5
20260505183350 27 200 3.2 11.3 0.00 0.00 0.00 83 1007.7
20260505183107 27 200 3.2 11.3 0.00 0.00 0.00 83 1007.7
20260505182347 27 200 3.2 11.3 0.00 0.00 0.00 83 1007.8
20260505181847 27 198 3.2 9.7 0.00 0.00 0.00 83 1007.7
20260505181610 27 199 3.2 9.7 0.00 0.00 0.00 83 1007.9
20260505180845 27 199 3.2 9.7 0.00 0.00 0.00 83 1007.8
20260505180345 27 198 3.2 9.7 0.00 0.00 0.00 83 1007.9
20260505180340 27 198 3.2 8.0 0.00 0.00 0.00 83 1007.9
20260505175342 27 198 1.6 9.7 0.00 0.00 0.00 83 1007.9
20260505174836 27 198 3.2 9.7 0.00 0.00 0.00 84 1007.9
20260505174336 27 198 3.2 9.7 0.00 0.00 0.00 83 1007.9
20260505173831 27 198 3.2 9.7 0.00 0.00 0.00 83 1008.0
20260505173326 27 195 3.2 8.0 0.00 0.00 0.00 84 1008.0
20260505172822 27 196 3.2 8.0 0.00 0.00 0.00 84 1008.0
20260505172319 27 195 3.2 11.3 0.00 0.00 0.00 84 1008.0
20260505172258 27 193 3.2 11.3 0.00 0.00 0.00 84 1008.1
20260505171308 27 196 3.2 8.0 0.00 0.00 0.00 84 1008.2
20260505170755 27 196 3.2 9.7 0.00 0.00 0.00 84 1008.2
20260505170516 27 196 1.6 9.7 0.00 0.00 0.00 84 1008.3
20260505165754 27 196 3.2 8.0 0.00 0.00 0.00 84 1008.3
20260505165513 27 196 3.2 9.7 0.00 0.00 0.00 84 1008.2
20260505164750 27 197 3.2 9.7 0.00 0.00 0.00 84 1008.2
20260505164238 26 198 1.6 8.0 0.00 0.00 0.00 84 1008.1
20260505163730 26 199 1.6 8.0 0.00 0.00 0.00 85 1008.1
20260505163223 26 199 1.6 8.0 0.00 0.00 0.00 85 1008.0
20260505162702 26 199 3.2 8.0 0.00 0.00 0.00 86 1008.0
20260505162158 26 199 3.2 8.0 0.00 0.00 0.00 86 1008.1
20260505161922 26 199 3.2 9.7 0.00 0.00 0.00 85 1008.2
20260505161425 26 202 3.2 9.7 0.00 0.00 0.00 85 1008.1
20260505160653 26 202 3.2 9.7 0.00 0.00 0.00 85 1008.0
20260505160152 26 205 3.2 8.0 0.00 0.00 0.00 85 1008.0
20260505153135 26 207 3.2 11.3 0.00 0.00 0.00 85 1008.0
20260505152636 26 207 3.2 11.3 0.00 0.00 0.00 85 1007.9
20260505152357 26 178 3.2 8.0 0.00 0.00 0.00 85 1007.8
20260505151628 26 184 3.2 12.9 0.00 0.00 0.00 85 1007.8
20260505151347 26 159 3.2 12.9 0.00 0.00 0.00 84 1007.8
20260505150624 26 207 4.8 11.3 0.00 0.00 0.00 85 1007.7
20260505150124 26 171 4.8 11.3 0.00 0.00 0.00 85 1007.7
20260505140558 25 211 1.6 6.4 0.00 0.00 0.00 90 1007.9
20260505125008 23 212 1.6 8.0 0.00 0.00 0.00 92 1007.5
20260505124724 23 212 1.6 6.4 0.00 0.00 0.00 92 1007.6
20260505123958 23 212 0.0 6.4 0.00 0.00 0.00 92 1007.7
20260505123449 23 212 0.0 4.8 0.00 0.00 0.00 92 1007.4
20260505122942 23 212 0.0 4.8 0.00 0.00 0.00 92 1007.3
20260505122406 23 212 1.6 4.8 0.00 0.00 0.00 92 1007.3
20260505121900 23 212 1.6 6.4 0.00 0.00 0.00 92 1007.1
20260505121358 23 212 1.6 6.4 0.00 0.00 0.00 91 1007.0
20260505120836 23 212 1.6 4.8 0.00 0.00 0.00 91 1007.0
20260505120336 23 212 1.6 4.8 0.00 0.00 0.00 92 1007.3
20260505115808 23 212 1.6 6.4 0.00 0.00 0.00 91 1007.5
20260505115305 23 212 0.0 6.4 0.00 0.00 0.00 92 1007.5
20260505114758 23 212 0.0 4.8 0.00 0.00 0.00 91 1007.5
20260505114256 22 212 1.6 4.8 0.00 0.00 0.00 92 1007.3
20260505113752 22 212 1.6 6.4 0.00 0.00 0.00 92 1007.2
20260505113253 22 212 1.6 6.4 0.00 0.00 0.00 91 1007.1
20260505113241 22 212 0.0 4.8 0.00 0.00 0.00 91 1007.0
20260505112254 22 212 0.0 4.8 0.00 0.00 0.00 91 1007.0
20260505111745 22 212 0.0 4.8 0.00 0.00 0.00 91 1007.1
20260505111506 22 212 0.0 4.8 0.00 0.00 0.00 91 1007.3
20260505110743 22 212 0.0 4.8 0.00 0.00 0.00 91 1007.4
20260505110711 22 212 0.0 3.2 0.00 0.00 0.00 91 1007.3
20260505102153 22 212 1.6 6.4 0.00 0.00 0.00 90 1007.1
20260505101655 22 212 0.0 4.8 0.00 0.00 0.00 90 1007.4
20260505101129 22 212 1.6 4.8 0.00 0.00 0.00 90 1007.4
20260505100630 22 212 1.6 4.8 0.00 0.00 0.00 90 1007.4
20260505100125 23 212 1.6 4.8 0.00 0.00 0.00 90 1007.2
20260505095845 22 212 1.6 4.8 0.00 0.00 0.00 90 1007.1
20260505095106 22 212 1.6 4.8 0.00 0.00 0.00 90 1007.0
20260505094601 22 212 1.6 4.8 0.00 0.00 0.00 90 1007.1
20260505094053 22 212 1.6 4.8 0.00 0.00 0.00 90 1007.2
20260505093553 22 212 0.0 4.8 0.00 0.00 0.00 90 1007.3
20260505093053 22 212 0.0 4.8 0.00 0.00 0.00 90 1007.4
20260505092551 22 212 0.0 3.2 0.00 0.00 0.00 90 1007.6
20260505092050 22 212 0.0 3.2 0.00 0.00 0.00 90 1007.6
20260505091543 22 212 0.0 6.4 0.00 0.00 0.00 90 1007.6
20260505091014 22 212 1.6 6.4 0.00 0.00 0.00 90 1007.5
20260505090511 22 212 1.6 4.8 0.00 0.00 0.00 90 1007.5
20260505085956 22 212 0.0 4.8 0.00 0.00 0.00 90 1007.5
20260505085453 22 212 0.0 3.2 0.00 0.00 0.00 90 1007.6
20260505085215 22 212 0.0 3.2 0.00 0.00 0.00 90 1007.5
20260505084453 22 212 0.0 3.2 0.00 0.00 0.00 90 1007.6
20260505083950 22 212 0.0 3.2 0.00 0.00 0.00 90 1007.6
20260505083930 22 212 0.0 3.2 0.00 0.00 0.00 90 1007.4
20260505082946 22 212 0.0 3.2 0.00 0.00 0.00 90 1007.5
20260505082430 22 212 0.0 4.8 0.00 0.00 0.00 90 1007.6
20260505081925 22 212 0.0 4.8 0.00 0.00 0.00 90 1007.6
20260505081357 22 212 0.0 4.8 0.00 0.00 0.00 90 1007.8
20260505081126 22 212 0.0 3.2 0.00 0.00 0.00 90 1007.7
20260505080344 22 212 0.0 4.8 0.00 0.00 0.00 90 1007.7
20260505075844 22 212 0.0 4.8 0.00 0.00 0.00 90 1007.8
20260505075334 22 212 1.6 6.4 0.00 0.00 0.00 90 1007.8
20260505075050 22 212 1.6 4.8 0.00 0.00 0.00 90 1007.9
20260505074324 22 212 1.6 4.8 0.00 0.00 0.00 90 1007.9
20260505073822 22 212 0.0 4.8 0.00 0.00 0.00 89 1007.9
20260505073545 21 212 1.6 4.8 0.00 0.00 0.00 89 1007.9
20260505072822 21 212 1.6 4.8 0.00 0.00 0.00 89 1007.9
20260505072250 21 212 0.0 3.2 0.00 0.00 0.00 89 1008.1
20260505071748 21 212 0.0 4.8 0.00 0.00 0.00 89 1008.1
20260505071511 21 212 1.6 4.8 0.00 0.00 0.00 89 1008.2
20260505071009 21 212 0.0 4.8 0.00 0.00 0.00 89 1008.3
20260505070459 21 212 0.0 4.8 0.00 0.00 0.00 89 1008.4
20260505065732 21 212 0.0 4.8 0.00 0.00 0.00 89 1008.4
20260505065226 21 212 0.0 4.8 0.00 0.00 0.00 89 1008.4
20260505064718 21 212 0.0 3.2 0.00 0.00 0.00 89 1008.6
20260505064208 21 212 0.0 3.2 0.00 0.00 0.00 89 1008.7
20260505063654 21 212 0.0 1.6 0.00 0.00 0.00 89 1008.7
20260505063147 21 212 0.0 1.6 0.00 0.00 0.00 88 1008.8
20260505062646 21 212 0.0 1.6 0.00 0.00 0.00 88 1008.9
20260505062128 21 212 0.0 1.6 0.00 0.00 0.00 88 1009.1
20260505061628 21 212 0.0 3.2 0.00 0.00 0.00 88 1009.0
20260505061044 21 212 0.0 3.2 0.00 0.00 0.00 88 1009.0
20260505060542 21 212 0.0 1.6 0.00 0.00 0.00 88 1009.0
20260505060258 21 212 0.0 3.2 0.00 0.00 0.00 88 1009.0
20260505055526 21 212 0.0 3.2 0.00 0.00 0.00 88 1008.9
20260505055016 21 212 0.0 4.8 0.00 0.00 0.00 87 1008.9
20260505054516 21 212 0.0 4.8 0.00 0.00 0.00 87 1009.1
20260505053958 21 212 0.0 1.6 0.00 0.00 0.00 87 1009.2
20260505053453 21 212 0.0 3.2 0.00 0.00 0.00 87 1009.2
20260505052952 21 212 0.0 3.2 0.00 0.00 0.00 87 1009.2
20260505052454 21 212 0.0 4.8 0.00 0.00 0.00 87 1009.3
20260505051951 21 212 1.6 6.4 0.00 0.00 0.00 87 1009.3
20260505051439 21 212 0.0 6.4 0.00 0.00 0.00 87 1009.2
20260505050938 21 212 0.0 4.8 0.00 0.00 0.00 86 1009.3
20260505050438 21 212 0.0 4.8 0.00 0.00 0.00 86 1009.2
20260505041316 22 212 0.0 4.8 0.00 0.00 0.00 85 1009.7
20260505040802 22 212 0.0 4.8 0.00 0.00 0.00 85 1009.6
20260505040258 22 212 0.0 3.2 0.00 0.00 0.00 84 1009.5
20260505035754 22 212 0.0 4.8 0.00 0.00 0.00 84 1009.7
20260505035250 22 212 0.0 4.8 0.00 0.00 0.00 84 1009.7
20260505034750 22 212 0.0 3.2 0.00 0.00 0.00 84 1009.8
20260505034248 22 212 0.0 3.2 0.00 0.00 0.00 83 1009.9
20260505033732 22 212 0.0 3.2 0.00 0.00 0.00 83 1009.9
20260505033212 22 212 0.0 3.2 0.00 0.00 0.00 83 1009.9
20260505032711 22 212 0.0 3.2 0.00 0.00 0.00 83 1009.8
20260505032211 22 212 0.0 1.6 0.00 0.00 0.00 83 1009.9
20260505031706 22 212 0.0 3.2 0.00 0.00 0.00 82 1010.0
20260505031427 22 212 0.0 3.2 0.00 0.00 0.00 82 1009.9
20260505030919 22 212 0.0 3.2 0.00 0.00 0.00 82 1009.9
20260505030408 22 212 0.0 4.8 0.00 0.00 0.00 82 1009.9
20260505025652 22 212 0.0 4.8 0.00 0.00 0.00 82 1009.8
20260505025150 22 212 0.0 6.4 0.00 0.00 0.00 81 1009.8
20260505024650 22 212 0.0 6.4 0.00 0.00 0.00 81 1009.8
20260505024148 23 212 1.6 6.4 0.00 0.00 0.00 81 1009.8
20260505023634 23 212 1.6 4.8 0.00 0.00 0.00 80 1009.8
20260505023122 23 212 1.6 6.4 0.00 0.00 0.00 80 1009.7
20260505022620 23 212 1.6 6.4 0.00 0.00 0.00 80 1009.8
20260505022118 23 212 3.2 8.0 0.00 0.00 0.00 80 1009.8
20260505021617 23 212 1.6 8.0 0.00 0.00 0.00 79 1009.6
20260505021118 23 212 1.6 8.0 0.00 0.00 0.00 80 1009.6
20260505020616 23 212 1.6 8.0 0.00 0.00 0.00 79 1009.7
20260505020054 23 213 1.6 6.4 0.00 0.00 0.00 79 1009.6
20260505015554 23 214 1.6 6.4 0.00 0.00 0.00 79 1009.5
20260505015054 23 214 3.2 8.0 0.00 0.00 0.00 79 1009.4
20260505014552 23 214 3.2 11.3 0.00 0.00 0.00 79 1009.2
20260505014050 23 217 1.6 11.3 0.00 0.00 0.00 79 1009.2
20260505014044 23 216 3.2 8.0 0.00 0.00 0.00 79 1009.3
20260505013049 23 216 3.2 9.7 0.00 0.00 0.00 79 1009.3
20260505012549 23 215 3.2 9.7 0.00 0.00 0.00 79 1009.2
20260505012047 23 188 3.2 9.7 0.00 0.00 0.00 79 1009.4
20260505011546 23 199 3.2 9.7 0.00 0.00 0.00 78 1009.4
20260505011046 23 199 1.6 9.7 0.00 0.00 0.00 78 1009.4
20260505010541 23 199 3.2 6.4 0.00 0.00 0.00 77 1009.1
20260505010307 23 176 4.8 12.9 0.00 0.00 0.00 77 1009.1
20260505005532 24 176 4.8 14.5 0.00 0.00 0.00 77 1009.2
20260505005244 24 170 4.8 14.5 0.00 0.00 0.00 76 1011.4
20260505004520 24 167 4.8 11.3 0.00 0.00 0.00 76 1009.2
20260505004016 24 165 4.8 11.3 0.00 0.00 0.00 76 1009.2
20260505003516 24 161 4.8 11.3 0.00 0.00 0.00 76 1009.1
20260505003016 24 161 4.8 11.3 0.00 0.00 0.00 75 1009.0
20260505002514 25 159 4.8 11.3 0.00 0.00 0.00 75 1009.0
20260505002004 25 158 4.8 14.5 0.00 0.00 0.00 74 1008.9
20260505001504 25 156 4.8 14.5 0.00 0.00 0.00 73 1008.9
20260505001002 25 212 4.8 12.9 0.00 0.00 0.00 73 1009.0
20260505000502 25 209 3.2 12.9 0.00 0.00 0.00 73 1009.0
20260505000003 25 180 3.2 9.7 0.00 0.00 0.00 73 1009.1
20260504235504 25 182 3.2 9.7 0.00 0.00 0.00 72 1009.2
20260504235003 25 180 3.2 11.3 0.00 0.00 0.00 72 1009.3
20260504234457 25 180 3.2 11.3 0.00 0.00 0.00 72 1009.3
20260504233954 25 180 4.8 11.3 0.00 0.00 0.00 72 1009.3
20260504233450 25 204 4.8 11.3 0.00 0.00 0.00 72 1009.4
20260504232950 25 205 6.4 14.5 0.00 0.00 0.00 72 1009.4
20260504232449 25 200 4.8 14.5 0.00 0.00 0.00 72 1009.4
20260504232218 26 203 4.8 11.3 0.00 0.00 0.00 72 1009.6
20260504231450 26 190 4.8 14.5 0.00 0.00 0.00 71 1009.6
20260504230948 26 171 4.8 14.5 0.00 0.00 0.00 71 1009.6
20260504230450 26 187 4.8 12.9 0.00 0.00 0.00 71 1009.6
20260504225946 26 184 4.8 12.9 0.00 0.00 0.00 71 1009.7
20260504225442 26 209 6.4 12.9 0.00 0.00 0.00 71 1009.8
20260504224944 26 161 4.8 11.3 0.00 0.00 0.00 71 1009.6
20260504224444 26 191 4.8 11.3 0.00 0.00 0.00 71 1009.8
20260504223943 26 190 4.8 11.3 0.00 0.00 0.00 71 1009.8
20260504222923 26 192 4.8 14.5 0.00 0.00 0.00 70 1009.9
20260504222906 26 192 3.2 11.3 0.00 0.00 0.00 70 1010.0
20260504222151 26 188 4.8 14.5 0.00 0.00 0.00 69 1010.1
20260504221423 26 179 3.2 14.5 0.00 0.00 0.00 69 1010.2
20260504221407 26 198 3.2 9.7 0.00 0.00 0.00 69 1010.3
20260504220422 26 198 3.2 12.9 0.00 0.00 0.00 69 1010.2
20260504215917 26 194 3.2 12.9 0.00 0.00 0.00 68 1010.2
20260504215415 26 198 3.2 9.7 0.00 0.00 0.00 68 1010.3
20260504214916 26 207 4.8 9.7 0.00 0.00 0.00 68 1010.3
20260504214416 26 180 4.8 12.9 0.00 0.00 0.00 67 1010.3
20260504214401 26 180 4.8 12.9 0.00 0.00 0.00 68 1010.4
20260504213414 26 205 4.8 14.5 0.00 0.00 0.00 67 1010.4
20260504213135 26 213 4.8 14.5 0.00 0.00 0.00 68 1010.5
20260504212640 26 219 4.8 11.3 0.00 0.00 0.00 67 1010.6
20260504211916 27 198 4.8 11.3 0.00 0.00 0.00 67 1010.5
20260504211413 27 200 4.8 12.9 0.00 0.00 0.00 67 1010.6
20260504210914 26 201 6.4 16.1 0.00 0.00 0.00 66 1010.7
20260504210412 27 205 6.4 16.1 0.00 0.00 0.00 66 1010.9
20260504205912 27 203 4.8 9.7 0.00 0.00 0.00 66 1010.9
20260504205410 27 201 4.8 11.3 0.00 0.00 0.00 66 1010.9
20260504205133 27 201 4.8 12.9 0.00 0.00 0.00 65 1010.8
20260504204408 27 201 3.2 12.9 0.00 0.00 0.00 65 1010.9
20260504203904 27 200 3.2 11.3 0.00 0.00 0.00 65 1011.0
20260504203406 27 163 3.2 11.3 0.00 0.00 0.00 65 1011.0
20260504202900 27 193 1.6 8.0 0.00 0.00 0.00 65 1011.1
20260504202356 27 193 3.2 8.0 0.00 0.00 0.00 65 1011.2
20260504201856 27 200 4.8 12.9 0.00 0.00 0.00 64 1011.3
20260504201356 27 205 4.8 12.9 0.00 0.00 0.00 63 1011.3
20260504200856 27 204 3.2 9.7 0.00 0.00 0.00 63 1011.3
20260504200354 27 201 3.2 12.9 0.00 0.00 0.00 64 1011.5
20260504195851 27 203 4.8 16.1 0.00 0.00 0.00 64 1011.6
20260504195617 28 220 4.8 16.1 0.00 0.00 0.00 63 1011.5
20260504194852 28 180 4.8 12.9 0.00 0.00 0.00 62 1011.5
20260504194352 28 221 4.8 11.3 0.00 0.00 0.00 61 1011.6
20260504194107 28 192 3.2 11.3 0.00 0.00 0.00 62 1011.7
20260504193600 28 192 3.2 11.3 0.00 0.00 0.00 62 1011.8
20260504193104 28 189 3.2 9.7 0.00 0.00 0.00 62 1011.9
20260504192339 28 191 1.6 6.4 0.00 0.00 0.00 63 1012.1
20260504191840 27 191 3.2 11.3 0.00 0.00 0.00 64 1012.0
20260504191559 27 191 4.8 11.3 0.00 0.00 0.00 62 1012.1
20260504190840 28 189 4.8 14.5 0.00 0.00 0.00 62 1012.1
20260504190337 28 191 4.8 14.5 0.00 0.00 0.00 63 1012.1
20260504185836 28 188 4.8 8.0 0.00 0.00 0.00 61 1012.2
20260504185336 27 188 4.8 16.1 0.00 0.00 0.00 63 1012.2
20260504185102 28 188 4.8 16.1 0.00 0.00 0.00 60 1012.3